Wind_Speed
65 65 63 59 58 56 49 46 45 43 40 42 41 36 33 31 32 34 35 37 37 36 39 37 41 46 50 53 57 56 58 51 49 43 51 50 47 47 54 57 62 61 62 56 54 55 57 58 59
72 67 65 63 59 59 58 48 51 45 49 51 51 45 41 38 35 41 41 42 40 36 41 40 43 48 53 56 57 58 55 48 43 48 47 44 51 56 58 59 61 60 55 58 57 58 60 60 59
67 70 69 60 63 60 58 51 54 53 53 49 51 52 49 43 46 42 41 41 44 46 51 50 49 52 56 55 54 56 47 44 50 48 49 52 56 58 59 60 64 60 64 61 61 64 65 63 61
67 72 62 62 69 63 59 58 59 52 55 52 53 52 48 49 51 49 47 46 48 52 53 53 51 55 54 54 54 54 51 56 51 51 51 55 56 58 68 66 62 64 66 69 72 70 68 63 62
67 70 69 66 74 72 70 66 65 61 58 53 53 53 56 51 53 52 50 52 51 54 55 52 54 53 51 52 54 56 55 53 54 55 58 60 59 69 65 62 66 69 73 73 73 71 70 67 65
73 69 64 71 72 73 71 69 64 65 61 60 61 59 55 57 54 51 49 49 50 55 54 51 50 53 54 55 54 52 59 68 66 66 66 60 69 70 64 65 69 74 77 78 78 76 75 71 66
81 78 67 70 72 70 71 68 62 57 60 61 63 62 61 61 61 60 60 63 62 60 53 51 51 52 57 57 64 71 70 69 68 66 70 72 68 65 67 72 77 77 78 77 75 74 73 72 67
74 80 73 77 83 77 71 68 71 65 63 65 62 63 63 62 68 61 61 62 66 57 51 52 52 56 57 66 72 72 69 68 68 71 69 72 72 72 74 77 78 78 77 78 77 75 72 69 66
80 67 67 68 71 74 73 72 72 69 65 66 66 67 68 66 62 64 59 60 58 52 57 56 58 55 62 70 70 71 71 69 69 69 71 70 73 78 78 79 79 81 83 80 78 77 74 69 64
88 77 74 77 77 77 74 72 71 66 69 68 71 74 72 64 57 60 63 57 55 56 57 58 60 64 69 67 69 71 71 75 76 74 71 77 79 82 85 81 84 83 82 80 80 78 71 66 62
96 89 87 84 82 82 78 77 67 66 68 73 72 68 63 60 57 52 55 57 62 61 59 62 65 67 67 67 71 72 75 74 74 75 77 76 81 85 85 86 83 79 79 81 80 74 69 64 57
102 96 95 95 92 88 84 77 75 64 65 69 65 65 59 59 61 61 67 63 61 63 61 63 64 67 67 70 74 76 77 79 76 74 75 79 83 89 91 88 84 82 80 78 73 69 65 59 57
103 103 102 102 104 99 96 90 83 70 68 70 70 68 68 66 61 59 59 62 60 60 65 67 71 73 75 76 77 74 71 72 73 76 78 80 81 83 85 86 82 78 74 70 66 65 60 57 59
108 105 108 109 108 105 104 96 97 83 82 81 82 80 76 74 74 70 69 70 70 71 74 77 77 80 78 69 70 71 75 76 78 80 82 82 80 80 82 81 77 74 69 63 63 63 58 61 62
108 113 112 108 107 108 106 102 93 80 88 87 86 86 89 85 81 79 80 77 74 75 75 77 77 72 67 71 76 77 80 81 82 81 80 79 79 76 78 77 68 62 65 62 59 57 63 67 64
108 112 111 107 109 106 109 103 95 96 100 97 91 92 92 87 84 78 77 75 72 72 74 74 73 71 72 75 73 72 75 76 79 79 81 80 77 76 76 65 56 56 60 54 56 62 65 69 65
112 107 106 106 104 107 108 92 98 101 103 99 97 96 93 89 87 83 76 76 73 73 73 72 72 72 70 69 72 78 81 83 84 85 83 79 76 72 63 53 49 53 52 50 60 67 70 66 58
111 109 106 106 102 108 106 93 94 96 97 93 94 89 86 81 77 76 75 75 72 72 73 70 71 72 74 76 81 85 84 86 88 85 78 76 73 65 53 47 53 50 39 57 65 66 65 59 53
123 118 113 110 108 106 102 99 93 93 94 91 88 85 80 76 76 76 74 70 67 69 72 74 78 79 79 81 85 83 83 84 81 77 75 73 67 53 46 48 44 45 54 64 62 61 58 55 48
128 127 117 112 110 105 100 95 90 87 82 82 81 82 79 77 73 70 68 71 71 71 77 78 79 78 81 82 81 78 78 76 74 74 71 63 52 50 49 44 45 47 51 54 57 54 54 48 46
132 128 125 121 116 109 105 94 89 84 78 77 73 71 71 69 69 71 74 74 75 79 81 74 76 78 75 76 74 70 71 71 71 69 61 54 48 43 38 40 44 49 50 53 48 49 48 46 45
127 129 129 129 127 122 120 99 91 86 81 79 77 79 74 72 75 80 80 78 78 82 78 77 74 69 68 64 65 68 69 66 62 56 53 48 39 36 38 42 44 46 49 45 45 43 43 44 41
122 124 123 121 121 119 108 100 97 99 90 87 90 87 83 88 86 85 82 79 75 76 71 70 65 62 59 60 64 63 61 55 51 50 45 39 28 37 39 41 44 46 43 42 40 37 39 39 35
116 116 118 119 116 106 102 99 89 98 98 97 95 91 90 89 88 83 77 75 75 68 64 59 60 61 59 61 60 54 49 49 45 39 33 32 33 37 39 42 41 39 39 38 34 35 35 34 28
118 114 109 107 104 94 98 94 80 83 88 90 93 91 87 78 73 71 70 68 65 60 61 60 58 57 58 58 51 49 46 41 35 30 30 32 35 39 39 35 33 36 35 31 30 30 28 25 24
112 114 110 104 93 91 93 81 75 72 77 78 82 80 75 69 66 65 64 64 59 56 55 54 51 55 52 48 45 40 35 31 29 30 32 33 36 37 32 28 29 33 29 26 25 25 24 22 21
106 107 109 107 97 90 76 73 68 71 70 67 64 62 63 61 59 58 54 52 49 46 45 48 49 45 42 35 32 29 28 30 31 31 32 35 36 29 26 22 30 30 23 20 19 20 17 16 18
97 102 105 102 98 87 74 68 59 63 60 55 50 49 48 46 44 43 42 43 39 40 41 39 39 34 28 28 27 27 30 31 30 30 34 35 28 26 18 21 28 23 18 18 14 12 12 14 15
89 91 94 93 92 88 78 64 57 59 56 51 45 41 38 34 33 34 37 33 33 32 33 33 25 22 24 24 24 29 31 31 31 34 33 27 25 19 16 22 25 18 16 12 8 9 13 15 15
78 81 84 84 83 84 80 67 61 58 55 46 39 34 30 28 29 33 27 23 28 28 28 28 24 24 21 21 26 28 30 31 32 32 27 25 22 14 17 22 21 11 12 5 8 11 12 17 15
Wind_Direction
248 248 249 248 256 253 253 251 257 247 253 255 257 260 264 252 251 263 269 275 285 286 289 290 289 295 298 298 299 299 301 300 297 295 305 301 301 300 299 297 298 302 303 305 305 305 305 305 308
248 250 253 250 256 258 259 253 251 250 258 260 261 265 261 263 253 262 270 274 284 284 290 290 292 295 297 296 300 300 301 295 294 301 300 298 299 299 297 301 303 303 304 305 302 303 305 306 306
250 255 252 254 259 256 251 253 253 257 258 259 265 269 268 271 270 278 281 286 286 286 285 291 294 295 294 295 299 299 292 292 300 298 298 301 300 302 305 306 306 304 305 304 303 306 308 308 306
244 244 251 253 251 250 253 253 248 260 257 257 266 264 267 267 267 280 277 281 281 284 287 289 293 296 295 297 299 296 293 295 298 297 298 302 301 303 307 309 305 307 307 307 308 309 309 308 306
244 244 248 251 251 253 253 252 253 256 256 256 252 263 265 266 268 277 275 280 281 282 285 287 294 295 295 293 295 295 296 297 296 296 299 299 300 305 307 307 307 307 308 309 309 308 310 308 306
244 242 251 250 253 251 253 254 256 254 250 254 259 263 264 266 271 277 281 281 280 277 282 288 290 296 292 292 294 293 296 298 295 297 302 300 303 306 305 305 307 308 309 308 307 306 306 307 305
240 245 247 251 254 252 252 250 251 253 253 256 261 263 263 269 270 276 283 287 286 282 281 283 289 289 291 289 295 301 299 297 298 301 303 307 305 304 304 308 309 308 307 307 304 305 306 307 306
242 243 244 248 253 250 250 250 250 253 255 260 260 261 263 267 274 277 285 285 285 280 281 284 282 285 292 295 297 297 299 300 302 304 303 302 304 306 307 307 306 307 308 309 306 305 306 307 306
236 237 240 244 249 250 251 253 253 253 251 255 258 259 263 268 273 278 281 281 280 270 273 276 283 283 294 292 292 294 298 301 300 301 298 299 301 305 304 305 307 308 311 309 307 307 308 307 305
239 238 241 246 250 252 249 250 253 252 256 260 261 266 267 268 275 276 279 278 274 273 274 278 282 289 292 290 289 290 295 297 297 298 298 301 303 304 305 307 309 309 309 309 306 308 308 306 305
242 241 244 247 251 254 255 251 252 251 254 255 257 263 266 272 272 271 271 274 274 273 274 279 284 288 287 287 287 292 297 295 295 296 300 300 300 304 305 307 310 308 308 307 307 307 307 306 303
242 241 244 246 248 250 253 251 254 252 251 253 260 264 264 260 267 268 278 274 270 273 277 280 280 285 285 288 291 296 295 297 296 297 298 300 303 303 306 308 308 308 308 307 306 305 307 304 304
243 242 246 248 249 250 251 254 255 255 255 257 261 263 266 271 272 270 271 272 269 275 278 277 282 285 288 288 292 293 293 293 296 298 299 301 305 307 307 310 309 309 308 307 304 304 305 305 306
245 243 246 248 250 252 253 254 256 258 257 259 262 264 266 267 270 271 272 272 275 278 279 282 286 288 292 292 290 292 293 296 297 296 299 302 306 306 306 307 309 308 305 303 306 305 305 307 308
246 246 244 246 251 252 254 253 257 255 256 260 262 264 264 265 269 271 275 280 279 280 282 284 288 290 292 288 290 293 295 296 296 299 299 303 305 307 306 307 309 302 301 303 301 305 305 309 306
246 248 248 249 251 252 254 253 253 254 257 259 261 264 265 268 272 273 275 279 277 280 284 287 287 289 290 291 293 295 297 298 299 301 303 305 307 306 304 306 300 296 296 300 300 303 304 305 304
247 249 249 248 250 251 252 253 255 258 258 259 262 263 266 269 272 275 275 275 277 280 283 283 286 289 291 291 294 295 297 299 300 302 303 305 304 303 304 299 288 289 290 293 296 300 302 303 304
247 249 248 248 250 252 252 251 252 255 258 261 264 267 268 269 270 270 271 272 274 277 280 283 289 291 291 293 297 297 298 298 301 301 303 301 302 304 295 284 287 284 282 286 294 301 303 306 309
241 246 245 246 248 251 253 249 253 256 259 261 263 264 266 268 267 268 269 271 275 279 283 285 290 294 294 295 297 297 295 297 298 300 300 302 305 296 288 287 284 275 276 288 298 303 305 306 310
242 242 244 246 248 249 251 249 250 254 257 259 260 264 265 266 265 267 268 270 277 284 291 289 288 292 294 293 293 294 295 296 298 297 302 304 298 292 291 288 285 287 294 298 302 306 305 310 308
244 243 241 243 244 248 249 249 251 254 257 260 260 263 263 261 265 268 272 274 281 286 291 289 291 291 290 289 292 294 292 293 295 301 301 298 296 290 287 286 289 296 299 302 306 305 307 308 306
243 244 244 243 244 247 248 249 252 253 254 258 260 258 258 265 268 270 275 281 285 285 285 286 288 289 289 290 290 290 291 296 302 298 296 296 299 291 290 295 295 299 301 306 306 307 305 306 311
243 243 245 245 245 248 248 250 246 252 251 252 253 257 261 262 269 275 278 279 281 280 281 283 287 289 288 288 287 291 297 300 294 291 293 292 280 288 292 295 301 302 306 308 308 303 302 305 307
241 243 243 243 244 246 247 251 246 251 253 254 255 258 261 264 270 274 273 273 275 276 278 283 286 288 288 289 291 296 299 292 288 290 290 297 292 294 298 304 302 305 310 305 302 300 299 305 309
237 241 244 245 246 248 247 250 249 249 253 256 255 258 262 267 267 268 267 271 273 274 278 281 284 286 286 288 296 297 290 285 288 291 299 296 296 299 304 302 306 307 306 302 296 300 305 310 316
236 236 239 243 245 246 246 248 249 247 245 249 254 256 258 260 260 263 265 268 271 275 277 280 282 279 284 293 297 291 289 288 290 298 297 297 299 303 303 302 307 309 308 295 303 308 320 323 326
235 235 235 237 238 241 243 244 245 246 249 251 253 254 256 259 263 264 264 267 268 270 274 274 274 280 289 291 292 287 290 294 298 297 299 301 305 303 297 306 312 311 298 300 304 317 330 344 346
233 233 233 234 235 236 237 238 239 244 249 251 250 251 254 257 256 256 259 256 261 264 266 270 276 282 284 285 289 294 294 303 303 302 303 304 302 298 301 313 315 309 298 313 312 351 353 16 7
232 230 231 232 232 232 232 229 229 236 240 246 248 249 250 248 246 243 246 248 254 259 262 270 265 270 276 288 297 297 300 304 303 305 305 303 299 294 305 315 319 309 306 334 360 11 4 10 13
229 230 230 230 229 229 228 224 222 231 240 241 242 243 241 235 234 234 231 239 249 255 259 257 265 267 282 293 299 305 304 303 305 306 304 300 295 288 310 317 323 305 319 30 24 51 56 21 359
Height
10895 10897 10898 10903 10908 10909 10916 10916 10919 10920 10921 10924 10925 10927 10930 10930 10932 10933 10932 10932 10930 10929 10928 10925 10924 10920 10918 10915 10915 10914 10913 10912 10911 10909 10907 10904 10902 10900 10898 10895 10892 10888 10884 10882 10879 10874 10869 10863 10859
10886 10888 10892 10895 10899 10902 10908 10908 10912 10913 10913 10917 10918 10922 10922 10923 10925 10927 10928 10929 10925 10923 10921 10919 10917 10915 10913 10910 10908 10906 10905 10904 10902 10901 10899 10896 10895 10891 10888 10885 10881 10878 10874 10871 10868 10865 10860 10853 10847
10876 10880 10884 10888 10889 10891 10897 10902 10905 10905 10907 10907 10908 10911 10915 10918 10919 10921 10922 10922 10918 10915 10914 10912 10911 10908 10905 10903 10901 10898 10897 10896 10894 10893 10891 10887 10884 10881 10878 10875 10871 10865 10860 10857 10853 10851 10847 10841 10835
10866 10870 10875 10877 10875 10878 10885 10892 10895 10898 10900 10898 10900 10902 10906 10911 10913 10915 10916 10916 10911 10908 10906 10903 10903 10900 10895 10893 10892 10891 10890 10889 10887 10885 10883 10880 10875 10871 10867 10862 10855 10850 10844 10840 10838 10834 10830 10826 10822
10856 10861 10866 10866 10863 10867 10876 10881 10886 10889 10891 10891 10891 10895 10897 10900 10902 10907 10910 10908 10904 10901 10899 10897 10894 10890 10888 10885 10886 10884 10883 10880 10879 10876 10873 10872 10866 10862 10855 10851 10845 10839 10833 10826 10822 10819 10816 10812 10808
10848 10851 10858 10856 10849 10854 10867 10875 10879 10879 10881 10879 10881 10886 10889 10893 10895 10898 10899 10900 10897 10891 10892 10890 10888 10882 10879 10876 10876 10876 10875 10873 10870 10866 10863 10861 10858 10852 10846 10842 10836 10829 10823 10815 10808 10805 10800 10797 10793
10838 10844 10848 10844 10837 10849 10855 10865 10869 10869 10872 10871 10872 10874 10879 10885 10886 10889 10889 10890 10890 10883 10883 10882 10880 10877 10872 10869 10865 10865 10865 10861 10860 10856 10851 10848 10844 10841 10835 10830 10823 10816 10810 10804 10796 10790 10786 10781 10776
10826 10837 10840 10836 10829 10836 10841 10852 10858 10861 10864 10862 10863 10863 10869 10876 10880 10881 10880 10881 10880 10877 10873 10873 10871 10870 10868 10859 10856 10847 10851 10847 10847 10845 10839 10836 10834 10830 10823 10817 10813 10805 10797 10790 10782 10777 10772 10768 10762
10814 10830 10834 10828 10820 10819 10828 10835 10842 10851 10856 10852 10853 10853 10859 10865 10871 10872 10873 10871 10871 10871 10867 10865 10864 10863 10862 10855 10850 10843 10842 10839 10836 10834 10830 10826 10823 10818 10812 10806 10799 10791 10783 10777 10768 10764 10758 10754 10749
10802 10819 10821 10809 10805 10801 10811 10822 10830 10845 10846 10843 10842 10846 10852 10858 10861 10862 10860 10861 10863 10863 10861 10857 10853 10854 10851 10846 10840 10837 10837 10832 10828 10824 10821 10814 10808 10803 10798 10791 10784 10777 10769 10762 10753 10748 10744 10739 10735
10788 10809 10798 10792 10793 10788 10795 10811 10818 10835 10837 10829 10831 10840 10845 10847 10851 10852 10850 10852 10853 10851 10849 10848 10847 10845 10842 10838 10829 10830 10828 10823 10818 10813 10809 10804 10796 10788 10782 10776 10770 10762 10754 10746 10739 10734 10729 10725 10721
10765 10783 10781 10778 10776 10777 10778 10791 10809 10822 10824 10818 10823 10826 10834 10838 10839 10839 10841 10842 10842 10842 10841 10840 10838 10836 10831 10827 10821 10818 10814 10812 10805 10800 10798 10792 10785 10771 10763 10759 10754 10747 10739 10731 10726 10721 10716 10712 10708
10750 10764 10764 10762 10757 10763 10764 10783 10793 10816 10808 10808 10810 10814 10820 10826 10829 10828 10829 10830 10831 10833 10832 10829 10827 10823 10821 10817 10811 10804 10801 10797 10794 10789 10785 10780 10772 10760 10747 10740 10738 10730 10723 10718 10713 10708 10703 10699 10695
10731 10739 10744 10745 10745 10747 10755 10769 10776 10807 10789 10793 10797 10803 10810 10813 10815 10818 10819 10820 10822 10820 10818 10817 10815 10812 10811 10804 10798 10794 10788 10786 10782 10777 10772 10768 10760 10750 10737 10729 10724 10715 10707 10706 10699 10694 10690 10686 10681
10707 10715 10723 10733 10735 10734 10736 10755 10784 10777 10765 10779 10783 10788 10795 10801 10803 10806 10805 10808 10806 10805 10804 10804 10802 10800 10799 10791 10788 10782 10775 10772 10767 10763 10758 10753 10746 10738 10725 10720 10711 10702 10694 10691 10686 10683 10678 10673 10668
10683 10689 10704 10722 10718 10722 10714 10755 10765 10752 10754 10765 10771 10777 10787 10792 10791 10794 10795 10795 10790 10793 10792 10791 10787 10789 10785 10779 10776 10769 10764 10758 10752 10748 10743 10738 10732 10726 10715 10709 10700 10693 10685 10682 10677 10672 10667 10661 10655
10662 10678 10688 10687 10695 10695 10697 10750 10740 10738 10735 10754 10759 10767 10773 10781 10780 10781 10781 10780 10781 10781 10781 10780 10778 10777 10773 10769 10764 10757 10751 10744 10739 10734 10730 10723 10719 10716 10705 10700 10692 10684 10678 10674 10670 10664 10658 10651 10643
10647 10655 10661 10670 10676 10671 10689 10731 10722 10716 10721 10743 10747 10756 10762 10766 10767 10764 10767 10769 10770 10771 10770 10770 10766 10764 10761 10756 10751 10743 10738 10730 10725 10718 10715 10711 10707 10703 10694 10689 10683 10677 10670 10666 10662 10654 10646 10638 10629
10611 10624 10636 10645 10654 10655 10679 10703 10704 10710 10721 10732 10737 10740 10746 10751 10749 10749 10752 10756 10758 10759 10758 10758 10755 10753 10748 10741 10735 10729 10722 10718 10712 10704 10703 10699 10696 10689 10684 10681 10677 10671 10665 10660 10652 10644 10634 10627 10620
10585 10603 10616 10624 10630 10647 10659 10681 10691 10702 10712 10716 10722 10728 10733 10734 10734 10736 10738 10742 10745 10748 10747 10746 10744 10740 10735 10726 10721 10717 10709 10703 10699 10694 10691 10687 10682 10678 10673 10670 10666 10660 10655 10649 10641 10632 10625 10618 10612
10560 10577 10595 10607 10612 10629 10641 10666 10680 10693 10703 10704 10712 10714 10716 10718 10724 10725 10727 10731 10735 10737 10735 10732 10730 10727 10721 10713 10708 10704 10699 10694 10689 10685 10678 10676 10673 10669 10663 10659 10655 10649 10644 10638 10632 10625 10615 10609 10604
10535 10551 10567 10585 10597 10612 10623 10656 10670 10679 10692 10695 10698 10698 10699 10707 10711 10712 10718 10722 10722 10722 10723 10719 10716 10714 10708 10703 10697 10692 10688 10684 10680 10674 10668 10667 10663 10659 10655 10650 10645 10640 10635 10630 10624 10616 10609 10602 10597
10519 10529 10544 10560 10578 10589 10618 10631 10678 10662 10677 10681 10673 10683 10693 10696 10702 10707 10707 10708 10706 10708 10710 10706 10704 10700 10697 10692 10686 10683 10680 10675 10669 10665 10661 10659 10656 10651 10647 10643 10636 10632 10627 10622 10615 10609 10603 10597 10592
10493 10505 10520 10534 10552 10577 10608 10612 10662 10643 10655 10656 10665 10674 10678 10686 10694 10694 10693 10691 10693 10697 10696 10696 10691 10688 10684 10680 10677 10675 10670 10665 10660 10657 10655 10650 10646 10643 10638 10632 10628 10624 10620 10614 10609 10604 10598 10593 10588
10470 10486 10502 10517 10537 10580 10583 10598 10642 10632 10637 10641 10651 10661 10669 10676 10678 10677 10678 10681 10683 10685 10684 10684 10682 10676 10673 10671 10670 10666 10660 10656 10654 10652 10649 10644 10639 10635 10630 10626 10622 10620 10615 10609 10605 10599 10595 10590 10585
10447 10465 10488 10503 10531 10557 10566 10599 10620 10613 10613 10631 10633 10649 10658 10661 10661 10666 10668 10669 10671 10673 10673 10672 10670 10667 10665 10663 10661 10657 10653 10651 10649 10646 10642 10638 10634 10629 10624 10621 10619 10613 10609 10605 10601 10597 10592 10588 10582
10421 10445 10467 10483 10511 10533 10563 10585 10596 10587 10600 10615 10627 10638 10645 10646 10653 10654 10655 10657 10659 10662 10663 10662 10660 10659 10657 10656 10653 10651 10648 10645 10643 10639 10635 10630 10626 10621 10619 10617 10613 10609 10604 10602 10598 10594 10590 10586 10581
10401 10424 10441 10469 10499 10527 10554 10570 10580 10574 10588 10603 10614 10622 10630 10636 10638 10641 10644 10646 10650 10652 10653 10652 10652 10651 10651 10649 10647 10645 10641 10638 10634 10631 10627 10623 10619 10617 10615 10613 10609 10604 10601 10598 10595 10592 10589 10584 10581
10383 10410 10429 10459 10485 10514 10540 10559 10562 10559 10573 10593 10603 10611 10618 10623 10629 10633 10636 10639 10641 10644 10644 10645 10645 10646 10645 10644 10642 10638 10633 10630 10627 10623 10619 10616 10614 10612 10611 10609 10604 10600 10597 10596 10595 10593 10589 10585 10581
10377 10398 10420 10447 10474 10499 10523 10543 10546 10553 10573 10584 10594 10602 10610 10616 10621 10625 10628 10633 10635 10636 10637 10639 10640 10641 10640 10638 10635 10630 10626 10623 10620 10616 10612 10609 10607 10607 10606 10604 10600 10598 10597 10597 10596 10593 10591 10588 10583